Stations météo

réclame
Mon MeteoGroup
Catania/Fontanarossa, Italie (16460): Température de l'air & dewpoint: 11.12.2017 20:00:00 - 17.12.2017 20:00:00 (CET)Catania/Fontanarossa, Italie (16460): Vitesse du vent: 11.12.2017 20:00:00 - 17.12.2017 20:00:00 (CET)Catania/Fontanarossa, Italie (16460): Direction du vent: 11.12.2017 20:00:00 - 17.12.2017 20:00:00 (CET)Catania/Fontanarossa, Italie (16460): reduced air pressure: 11.12.2017 20:00:00 - 17.12.2017 20:00:00 (CET)Catania/Fontanarossa, Italie (16460): visibility: 11.12.2017 20:00:00 - 17.12.2017 20:00:00 (CET)Catania/Fontanarossa, Italie (16460): Quantités de précipitations: 11.12.2017 20:00:00 - 17.12.2017 20:00:00 (CET)
Date & Time tt [°C] td [°C] ff [km/h] ff [knt] dd ppp [hPa] vv [km] rr [mm]
17.12.2017 20:00:00 8,0 3,0 16 9 W - 10 -
17.12.2017 19:00:00 9,0 3,0 16 9 W 1016,9 10 -
17.12.2017 18:00:00 11,0 2,0 16 9 W - 10 -
17.12.2017 17:00:00 10,0 2,0 11 6 WSW - 10 -
17.12.2017 16:00:00 14,4 1,7 15 8 W 1015,1 10 0,0
17.12.2017 15:00:00 15,0 2,0 18 10 W - 10 -
17.12.2017 14:00:00 14,0 2,0 21 11 WNW - 10 -
17.12.2017 13:00:00 15,3 3,0 29 16 W 1014,6 10 -
17.12.2017 12:00:00 14,0 5,0 29 16 W - 10 -
17.12.2017 11:00:00 13,0 5,0 28 15 W - 10 -
17.12.2017 10:00:00 11,6 4,8 26 14 WSW 1015,7 10 0,0
17.12.2017 09:00:00 9,0 5,0 18 10 W - 10 -
17.12.2017 08:00:00 6,0 3,0 16 9 W - 10 -
17.12.2017 07:00:00 6,0 3,0 22 12 W - 10 -
17.12.2017 06:00:00 7,0 3,0 24 13 W - 10 -
17.12.2017 05:00:00 6,0 4,0 21 11 W - 10 -
17.12.2017 04:00:00 7,4 4,5 16 9 W 1012,6 10 0,0
17.12.2017 03:00:00 8,0 5,0 18 10 W - 10 -
17.12.2017 02:00:00 9,0 6,0 16 9 WSW - 10 -
17.12.2017 01:00:00 9,1 6,9 9 5 W 1011,3 10 -
17.12.2017 00:00:00 10,0 8,0 11 6 WSW - 10 -
16.12.2017 23:00:00 11,0 9,0 8 4 S - 10 -
16.12.2017 22:00:00 11,4 9,2 9 5 SW 1010,7 10 0,0
16.12.2017 21:00:00 12,0 10,0 13 7 WSW - 10 -
16.12.2017 20:00:00 13,0 12,0 5 3 SW - 10 -
16.12.2017 19:00:00 12,9 12,0 8 4 WNW 1009,5 10 -
16.12.2017 18:00:00 13,0 12,0 4 2 - - 10 -
16.12.2017 17:00:00 14,0 13,0 4 2 - - 10 -
16.12.2017 16:00:00 14,1 13,0 8 4 SW 1007,9 10 0,0
16.12.2017 15:00:00 17,0 12,0 8 4 W - 10 -
16.12.2017 14:00:00 17,0 11,0 11 6 W - 10 -
16.12.2017 13:00:00 18,0 11,2 15 8 W 1007,4 10 -
16.12.2017 12:00:00 17,0 11,0 13 7 W - 10 -
16.12.2017 11:00:00 13,0 10,0 5 3 SSW - 10 -
16.12.2017 10:00:00 12,2 9,4 9 5 WSW 1009,1 10 0,0
16.12.2017 09:00:00 12,0 8,0 13 7 WSW - 10 -
16.12.2017 08:00:00 11,0 8,0 16 9 WSW - 10 -
16.12.2017 07:00:00 12,8 8,1 15 8 W 1008,0 10 -
16.12.2017 06:00:00 12,0 9,0 11 6 W - 10 -
16.12.2017 05:00:00 13,0 9,0 15 8 WNW - 10 -
16.12.2017 04:00:00 11,1 7,1 18 10 W 1008,9 10 0,0
16.12.2017 03:00:00 9,0 6,0 16 9 WSW - 10 -
16.12.2017 02:00:00 9,0 7,0 15 8 W - 10 -
16.12.2017 01:00:00 9,6 7,0 13 7 WSW 1009,7 10 -
16.12.2017 00:00:00 12,0 7,0 18 10 W - 10 -
15.12.2017 23:00:00 13,0 8,0 16 9 W - 10 -
15.12.2017 22:00:00 13,6 8,4 15 8 W 1010,6 10 0,0
15.12.2017 21:00:00 13,0 9,0 15 8 W - 10 -
15.12.2017 20:00:00 12,0 10,0 16 9 WSW - 10 -
15.12.2017 19:00:00 14,1 10,3 18 10 W 1010,6 10 -
15.12.2017 18:00:00 15,0 10,0 29 16 WSW - 10 -
15.12.2017 17:00:00 16,0 9,0 22 12 SW - 10 -
15.12.2017 16:00:00 17,3 7,7 18 10 W 1010,2 10 0,0
15.12.2017 15:00:00 19,0 7,0 29 16 WSW - 10 -
15.12.2017 14:00:00 19,0 7,0 28 15 WSW - 10 -
15.12.2017 13:00:00 18,5 9,1 21 11 W 1012,0 10 -
15.12.2017 12:00:00 18,0 9,0 24 13 W - 10 -
15.12.2017 11:00:00 16,0 9,0 18 10 WSW - 10 -
15.12.2017 10:00:00 13,1 7,6 18 10 WSW 1015,5 10 0,0
15.12.2017 09:00:00 10,0 6,0 18 10 WSW - 10 -
15.12.2017 08:00:00 7,0 5,0 13 7 SW - 10 -
15.12.2017 07:00:00 6,8 4,8 15 8 W 1015,9 10 -
15.12.2017 06:00:00 8,0 6,0 16 9 WSW - 10 -
15.12.2017 05:00:00 8,0 5,0 18 10 WSW - 10 -
15.12.2017 04:00:00 7,7 5,3 18 10 WSW 1016,7 10 0,0
15.12.2017 03:00:00 7,0 5,0 13 7 WSW - 10 -
15.12.2017 02:00:00 7,0 5,0 13 7 SW - 10 -
15.12.2017 01:00:00 7,9 5,2 15 8 WSW 1018,5 10 -
15.12.2017 00:00:00 8,0 6,0 15 8 WSW - 10 -
14.12.2017 23:00:00 8,0 5,0 13 7 W - 10 -
14.12.2017 22:00:00 9,6 5,9 11 6 WNW 1018,7 10 0,0
14.12.2017 21:00:00 9,0 6,0 16 9 W - 10 -
14.12.2017 20:00:00 11,0 6,0 16 9 W - 10 -
14.12.2017 19:00:00 10,7 6,8 18 10 WSW 1019,3 10 -
14.12.2017 18:00:00 13,0 8,0 16 9 W - 10 -
14.12.2017 17:00:00 15,0 7,0 21 11 W - 10 -
14.12.2017 16:00:00 16,4 7,2 29 16 W 1018,8 10 0,0
14.12.2017 15:00:00 18,0 5,0 34 18 W - 10 -
14.12.2017 14:00:00 18,0 5,0 34 18 W - 10 -
14.12.2017 13:00:00 17,1 3,8 37 20 W 1019,4 10 -
14.12.2017 12:00:00 16,0 5,0 29 16 W - 10 -
14.12.2017 11:00:00 15,0 5,0 18 10 W - 10 -
14.12.2017 10:00:00 13,4 5,4 18 10 W 1022,5 10 0,0
14.12.2017 09:00:00 12,0 5,0 24 13 W - 10 -
14.12.2017 08:00:00 9,0 5,0 11 6 WNW - 10 -
14.12.2017 07:00:00 7,0 4,4 15 8 W 1021,0 10 -
14.12.2017 06:00:00 7,0 5,0 13 7 WSW - 10 -
14.12.2017 05:00:00 9,0 5,0 11 6 W - 10 -
14.12.2017 04:00:00 9,7 6,0 18 10 WNW 1021,1 10 0,0
14.12.2017 03:00:00 10,0 7,0 21 11 W - 10 -
14.12.2017 02:00:00 10,0 7,0 21 11 WSW - 10 -
14.12.2017 01:00:00 10,2 6,9 21 11 W 1021,2 10 -
14.12.2017 00:00:00 11,0 8,0 13 7 WNW - 10 -
13.12.2017 23:00:00 12,0 8,0 15 8 W - 10 -
13.12.2017 22:00:00 11,7 9,2 13 7 W 1021,6 10 0,0
13.12.2017 21:00:00 12,0 10,0 5 3 WSW - 10 -
13.12.2017 20:00:00 14,0 12,0 8 4 W - 10 -
13.12.2017 19:00:00 14,0 12,0 8 4 WNW - 10 -
13.12.2017 18:00:00 16,0 12,0 5 3 - - 10 -
13.12.2017 17:00:00 17,0 12,0 8 4 SW - 10 -
13.12.2017 16:00:00 18,2 11,2 11 6 WSW 1020,1 10 0,0
13.12.2017 15:00:00 19,0 11,0 13 7 WSW - 10 -
13.12.2017 14:00:00 20,0 11,0 16 9 W - 10 -
13.12.2017 13:00:00 19,3 10,8 21 11 W 1020,7 25 -
13.12.2017 12:00:00 19,0 11,0 29 16 W - 10 -
13.12.2017 11:00:00 19,0 10,0 18 10 W - 10 -
13.12.2017 10:00:00 17,4 9,6 15 8 SW 1022,5 10 0,0
13.12.2017 09:00:00 10,0 6,0 13 7 WSW - 10 -
13.12.2017 08:00:00 9,0 5,0 18 10 WSW - 10 -
13.12.2017 07:00:00 8,4 4,6 18 10 WSW 1022,2 10 -
13.12.2017 06:00:00 8,0 4,0 18 10 WSW - 10 -
13.12.2017 05:00:00 10,0 4,0 15 8 WSW - 10 -
13.12.2017 04:00:00 8,0 3,9 15 8 SW 1021,2 10 0,0
13.12.2017 03:00:00 8,0 4,0 18 10 WSW - 10 -
13.12.2017 02:00:00 8,0 5,0 16 9 SW - 10 -
13.12.2017 01:00:00 7,6 5,0 13 7 WSW 1022,0 10 -
13.12.2017 00:00:00 7,0 6,0 13 7 SW - 10 -
12.12.2017 23:00:00 9,0 6,0 16 9 WSW - 10 -
12.12.2017 22:00:00 8,9 6,2 11 6 WSW 1022,3 10 0,0
12.12.2017 21:00:00 9,0 7,0 9 5 WSW - 10 -
12.12.2017 20:00:00 11,0 8,0 11 6 WSW - 10 -
12.12.2017 19:00:00 12,1 7,5 9 5 W 1021,2 10 -
12.12.2017 18:00:00 14,0 8,0 15 8 WSW - 10 -
12.12.2017 17:00:00 16,0 8,0 15 8 WSW - 10 -
12.12.2017 16:00:00 18,4 7,8 16 9 WSW 1019,4 - 0,0
12.12.2017 15:00:00 20,0 7,0 22 12 W - 10 -
12.12.2017 14:00:00 20,0 10,0 21 11 WSW - 10 -
12.12.2017 13:00:00 20,0 10,8 16 9 WSW 1018,9 10 -
12.12.2017 12:00:00 19,0 11,0 16 9 W - 10 -
12.12.2017 11:00:00 18,0 13,0 11 6 WSW - 10 -
12.12.2017 10:00:00 14,3 11,4 11 6 WSW 1020,2 10 0,0
12.12.2017 09:00:00 10,0 9,0 13 7 WSW - 10 -
12.12.2017 08:00:00 7,0 7,0 8 4 SSW - 10 -
12.12.2017 07:00:00 5,8 5,4 13 7 WSW 1018,9 10 -
12.12.2017 06:00:00 - - - - - - - -
12.12.2017 05:00:00 6,0 6,0 8 4 SSW - 10 -
12.12.2017 04:00:00 6,0 5,5 11 6 WSW 1018,1 10 0,0
12.12.2017 03:00:00 7,0 6,0 9 5 SW - 10 -
12.12.2017 02:00:00 7,0 6,0 8 4 WSW - 10 -
12.12.2017 01:00:00 7,0 6,1 8 4 SW 1018,0 10 -
12.12.2017 00:00:00 7,0 6,0 8 4 WSW - 10 -
11.12.2017 23:00:00 8,0 7,0 9 5 SW - 10 -
11.12.2017 22:00:00 8,4 7,0 9 5 SW 1018,2 10 0,0
11.12.2017 21:00:00 11,0 8,0 13 7 W - 10 -
11.12.2017 20:00:00 12,0 9,0 13 7 W - 10 -

tt = Température de l'air
td = dewpoint
ff = Vitesse du vent
dd = Direction du vent
ppp = reduced air pressure
vv = visibility
rr = Quantités de précipitations

stations d'obs. à proximité